Domov               UVHVVR             MKGP            O straneh              
ZDRAVSTVENO VARSTVO RASTLIN
  MREŽA AGROMET. POSTAJ
 ► PROGNOSTIČNA OBVESTILA
AGROMETEOROLOŠKI PODATKI -
ARSO
OBVLADOVANJE TVEGANJ ZARADI
NEUGODNIH VREMENSKIH RAZMER
  ► NARAVNE NESREČE
  ► SUŠA/MOČA
  ► NAMAKANJE
  ► ŽLED (gozdarstvo)
KARTOGRAFSKI PRIKAZI
SPLETNE POVEZAVE
PROJEKTI IN PUBLIKACIJE

AGROMETEOROLOŠKA MREŽA: VREMENSKE POSTAJE IN FENOLOŠKA OPAZOVANJA

Pregled podatkov za lokacijo Kostanjevica na Krki, meteorološka postaja 855712

Pregled senzorjev na lokaciji

ID Ime Zadnja
vrednost
Datum
zadnje
spremembe
Tip
senzorja
4337 Omočenost lista (U) 3 U 23.7.2018 05:00 A730WET
3853 Padavine (mm) 0 mm 23.7.2018 05:00 Rain-O-Matic
3851 Relativna vlaga 2 m (% RH) 100 % RH 23.7.2018 05:00 50YA
3850 Temperatura 2 m (°C) 18,44 °C 23.7.2018 05:00 50YA

Pregled podatkov zadnjih 24 ur

Zap.
št.
Datum in čas Kostanjevica na Krki
Omočenost
lista
Padavine Relativna
vlaga
2
m
Temperatura
2
m
1 23.7.2018 05:30
2 23.7.2018 05:00
3 23.7.2018 04:30
4 23.7.2018 04:00 3 0 100 18,4
5 23.7.2018 03:30 3 0 100 18,5
6 23.7.2018 03:00 3 0 100 18,6
7 23.7.2018 02:30 3 0 100 18,7
8 23.7.2018 02:00 3 0 100 18,8
9 23.7.2018 01:30 2 0 100 18,8
10 23.7.2018 01:00 0 0 100 18,9
11 23.7.2018 00:30 0 0 100 19,1
12 23.7.2018 00:00 0 0 100 19,3
13 22.7.2018 23:30 0 0 100 19,6
14 22.7.2018 23:00 0 0 100 19,8
15 22.7.2018 22:30 0 0 100 20
16 22.7.2018 22:00 0 0 100 20,1
17 22.7.2018 21:30 0 0 100 20
18 22.7.2018 21:00 0 0 100 20,1
19 22.7.2018 20:30 0 0 99,8 20,3
20 22.7.2018 20:00 0 0 97,2 20,8
21 22.7.2018 19:30 0 0 91,6 21,6
22 22.7.2018 19:00 0 0 92,7 22,1
23 22.7.2018 18:30 0 0 88,7 23,2
24 22.7.2018 18:00 0 0 84,8 23,8
25 22.7.2018 17:30 0 0 85,1 24,2
26 22.7.2018 17:00 0 0 73,5 25,3
27 22.7.2018 16:30 0 0 66,6 26,9
28 22.7.2018 16:00 0 0 67,5 27,1
29 22.7.2018 15:30 0 0 75,3 25,2
30 22.7.2018 15:00 10 0 75,3 24,8
31 22.7.2018 14:30 10 0 81,5 23,8
32 22.7.2018 14:00 10 0 87,4 22,4
33 22.7.2018 13:30 10 0,2 88,7 22,1
34 22.7.2018 13:00 0 0 76,6 23,8
35 22.7.2018 12:30 0 0 67,3 24,5
36 22.7.2018 12:00 0 0 77,3 24,3
37 22.7.2018 11:30 0 0 77,6 24,9
38 22.7.2018 11:00 0 0 76,3 25,2
39 22.7.2018 10:30 0 0 72,4 25,3
40 22.7.2018 10:00 0 0 70 26
41 22.7.2018 09:30 0 0 73 25,4
42 22.7.2018 09:00 0 0 78,1 24,1
43 22.7.2018 08:30 10 0 82,9 23,1
44 22.7.2018 08:00 10 0 88,2 22
45 22.7.2018 07:30 10 0 92,1 20,6
46 22.7.2018 07:00 10 0 92,9 20,3
47 22.7.2018 06:30 10 0 98,4 19,3
48 22.7.2018 06:00 10 0 100 18,1
© 2011 Ministrstvo za kmetijstvo, gozdarstvo in prehrano. Vse pravice pridržane.